TimeHST,TemperatureF,Dew PointF,Humidity,Sea Level PressureIn,VisibilityMPH,Wind Direction,Wind SpeedMPH,Gust SpeedMPH,PrecipitationIn,Events,Conditions,WindDirDegrees,DateUTC
12:53 AM,75.0,64.0,69,30.06,10.0,East,18.4,-,N/A,,Mostly Cloudy,80,2012-12-11 10:53:00
1:53 AM,75.0,64.0,69,30.06,10.0,ENE,12.7,-,N/A,,Mostly Cloudy,70,2012-12-11 11:53:00
2:53 AM,75.0,63.0,66,30.05,10.0,East,18.4,-,N/A,,Scattered Clouds,80,2012-12-11 12:53:00
3:53 AM,75.0,64.0,69,30.04,10.0,ENE,18.4,-,N/A,,Scattered Clouds,70,2012-12-11 13:53:00
4:53 AM,75.0,64.9,71,30.03,10.0,ENE,21.9,27.6,N/A,,Mostly Cloudy,70,2012-12-11 14:53:00
5:03 AM,75.2,64.4,69,30.04,10.0,ENE,20.7,26.5,N/A,,Mostly Cloudy,70,2012-12-11 15:03:00
5:53 AM,75.0,64.0,69,30.04,10.0,East,20.7,-,N/A,,Partly Cloudy,80,2012-12-11 15:53:00
6:53 AM,75.0,64.0,69,30.07,10.0,ENE,19.6,-,N/A,,Mostly Cloudy,70,2012-12-11 16:53:00
7:53 AM,75.0,66.0,73,30.10,10.0,NE,12.7,-,N/A,,Mostly Cloudy,50,2012-12-11 17:53:00
8:53 AM,77.0,64.0,64,30.12,10.0,ENE,17.3,-,N/A,,Mostly Cloudy,70,2012-12-11 18:53:00
9:53 AM,77.0,64.9,66,30.13,10.0,ENE,17.3,-,N/A,,Mostly Cloudy,60,2012-12-11 19:53:00
10:00 AM,78.8,66.2,65,30.14,10.0,ENE,17.3,-,N/A,,Mostly Cloudy,60,2012-12-11 20:00:00
10:49 AM,75.2,68.0,78,30.14,10.0,East,12.7,-,0.00,Rain,Light Rain,100,2012-12-11 20:49:00
10:53 AM,75.0,66.9,76,30.14,10.0,East,15.0,-,0.00,Rain,Light Rain,80,2012-12-11 20:53:00
11:03 AM,73.4,68.0,83,30.14,3.0,ENE,17.3,-,0.01,Rain,Light Rain,60,2012-12-11 21:03:00
11:10 AM,73.4,68.0,83,30.14,4.0,ENE,15.0,23.0,0.01,Rain,Light Rain,70,2012-12-11 21:10:00
11:53 AM,78.1,68.0,71,30.11,10.0,NE,18.4,-,0.01,,Mostly Cloudy,50,2012-12-11 21:53:00
12:01 PM,78.8,68.0,69,30.11,10.0,ENE,17.3,-,N/A,,Overcast,60,2012-12-11 22:01:00
12:53 PM,77.0,68.0,74,30.09,10.0,ENE,16.1,-,0.01,,Scattered Clouds,60,2012-12-11 22:53:00
1:53 PM,78.1,66.0,66,30.07,10.0,ENE,17.3,-,N/A,,Scattered Clouds,70,2012-12-11 23:53:00
2:53 PM,78.1,66.0,66,30.06,10.0,ENE,16.1,-,N/A,,Scattered Clouds,60,2012-12-12 00:53:00
3:53 PM,78.1,64.9,64,30.07,10.0,ENE,19.6,-,N/A,,Mostly Cloudy,60,2012-12-12 01:53:00
4:53 PM,75.9,64.9,69,30.08,10.0,ENE,18.4,-,N/A,,Scattered Clouds,70,2012-12-12 02:53:00
5:53 PM,75.9,64.0,67,30.09,10.0,ENE,19.6,-,N/A,,Scattered Clouds,60,2012-12-12 03:53:00
6:53 PM,75.9,64.9,69,30.11,10.0,NE,17.3,-,N/A,,Scattered Clouds,50,2012-12-12 04:53:00
7:53 PM,75.9,64.9,69,30.13,10.0,ENE,16.1,-,N/A,,Mostly Cloudy,60,2012-12-12 05:53:00
8:53 PM,75.0,66.0,73,30.13,10.0,ENE,19.6,25.3,0.00,,Mostly Cloudy,60,2012-12-12 06:53:00
9:53 PM,75.0,63.0,66,30.14,10.0,ENE,23.0,-,0.00,,Scattered Clouds,70,2012-12-12 07:53:00
10:53 PM,75.9,64.9,69,30.14,10.0,NE,19.6,-,N/A,,Mostly Cloudy,50,2012-12-12 08:53:00
11:53 PM,75.0,64.0,69,30.14,10.0,ENE,19.6,-,N/A,,Mostly Cloudy,60,2012-12-12 09:53:00